Vorticity
-2 5 11 4 3 6 0 -4 2 10 1 4 2 5 5 2 2 3 6 7 7 7 6 6 4 3 4 5 6 6 5 5 5 5 5 4 9 6 6 6 7 6 5
3 17 6 5 2 7 3 0 -2 1 6 3 1 4 5 4 3 2 3 6 7 8 7 6 5 5 2 4 5 5 5 5 6 6 4 5 8 5 7 5 8 0 6
5 13 6 4 5 6 5 2 2 3 4 3 0 3 7 3 3 3 2 4 7 7 7 5 5 4 4 3 5 5 6 7 7 7 5 6 4 6 9 5 6 6 6
13 11 8 6 5 5 5 3 2 4 3 4 -1 1 4 4 2 2 3 4 4 7 7 6 6 6 5 5 4 6 6 7 7 6 6 13 9 7 10 7 7 6 5
5 14 12 5 5 5 5 3 3 3 3 3 3 4 4 5 4 3 3 4 6 5 7 6 6 6 5 6 4 5 6 6 6 6 3 8 -23 4 1 11 3 4 6
11 4 5 4 6 4 5 3 3 2 3 3 2 3 2 8 4 3 2 4 5 6 6 8 5 6 7 5 5 4 6 5 6 5 10 10 28 8 4 4 6 6 7
7 8 8 5 6 5 5 3 3 3 3 3 2 2 1 5 6 3 3 4 5 5 5 6 5 7 7 5 6 6 6 6 6 5 3 -7 -3 4 7 3 7 5 5
12 6 7 4 5 6 5 4 2 3 3 3 2 3 -1 3 5 5 4 4 5 6 4 6 6 6 6 6 5 4 5 6 5 5 8 11 17 13 5 5 9 2 9
13 8 8 5 8 8 7 5 3 3 3 3 2 1 4 2 5 3 5 4 5 6 6 5 6 6 6 5 6 4 4 5 5 4 -1 14 -47 -0 10 -1 -1 3 6
15 9 8 7 7 5 7 6 4 4 3 3 2 0 2 3 5 4 5 6 4 7 4 6 7 7 8 6 7 5 4 4 4 5 2 12 8 11 6 11 -10 -0 8
19 18 5 8 -1 6 5 5 5 4 4 4 2 -0 1 3 5 4 6 6 3 6 7 3 7 7 6 8 9 5 6 7 7 3 7 6 -15 15 4 2 0 -10 11
2 25 16 6 8 -4 4 5 5 5 5 5 3 1 2 4 5 1 6 7 5 4 5 6 6 8 6 6 9 11 7 9 6 7 5 4 3 3 16 3 1 22 9
5 7 7 18 14 3 -3 5 5 7 5 5 5 1 2 2 5 3 5 6 7 4 3 5 7 6 8 8 7 9 8 7 6 8 3 4 6 9 9 16 9 19 15
9 15 35 16 17 8 3 3 5 5 4 5 6 1 3 3 5 4 2 5 6 2 5 3 6 6 6 9 6 8 7 8 4 6 6 8 8 3 3 11 31 9 9
6 10 -9 -2 21 17 9 10 6 5 7 5 6 4 2 3 3 4 1 2 5 1 4 3 5 7 7 8 9 6 9 6 8 3 2 6 9 7 9 21 20 7 4
8 -3 0 5 10 10 17 9 11 6 7 6 3 5 -0 2 2 5 4 2 5 2 2 5 1 5 7 6 4 9 9 6 7 7 2 4 3 4 10 4 1 17 -3
7 5 4 10 -1 4 6 13 7 11 10 9 11 5 2 4 3 3 5 4 1 4 4 2 3 3 6 7 7 6 5 10 8 7 8 4 5 11 2 7 10 47 17
2 4 10 13 8 3 5 5 8 5 9 6 9 11 8 -0 7 6 4 4 5 4 4 3 4 2 5 5 6 6 7 8 9 7 9 8 4 7 3 9 16 39 -7
5 4 10 13 14 10 5 4 5 7 9 4 9 10 12 4 2 4 4 3 2 3 2 4 2 3 3 5 4 4 6 10 8 8 5 6 4 3 9 19 10 12 7
9 10 9 10 12 14 14 10 6 2 2 4 8 4 2 12 4 7 6 4 4 0 1 -1 3 4 6 5 3 3 3 9 8 10 6 8 3 3 7 17 3 8 13
10 8 9 9 8 10 12 13 14 11 7 4 1 2 6 6 6 11 3 7 6 9 2 2 3 2 6 7 4 2 2 4 11 12 10 11 21 8 12 10 1 11 10
7 9 9 9 9 10 11 10 13 14 14 10 12 12 8 -0 -2 11 5 2 5 8 11 8 3 2 8 11 4 3 2 0 4 10 9 8 21 7 8 4 -6 33 39
9 8 8 8 8 6 7 10 9 9 12 18 17 9 9 11 13 11 10 6 -13 -22 11 2 6 6 8 16 8 6 3 1 6 6 7 8 15 8 12 -3 15 51 33
12 12 11 12 14 14 11 13 12 14 14 18 15 11 10 9 9 10 5 18 20 3 26 -33 -0 -3 8 8 12 5 4 3 2 4 7 10 20 14 12 12 -0 32 35
1 7 10 9 10 8 13 11 12 15 14 21 22 18 19 20 12 9 8 7 20 11 5 19 26 8 3 3 3 12 6 5 3 1 5 5 21 14 14 3 0 44 47
10 11 12 6 8 5 9 12 11 12 14 20 22 25 21 21 27 9 34 13 13 10 31 18 -24 8 5 9 1 6 -2 7 5 3 4 6 19 6 5 9 12 -5 27
Height
3138 3141 3142 3143 3145 3146 3148 3149 3150 3151 3151 3151 3152 3152 3152 3152 3153 3153 3153 3154 3154 3155 3156 3158 3159 3160 3161 3161 3162 3162 3163 3163 3162 3163 3163 3164 3164 3164 3165 3165 3167 3168 3169
3136 3140 3140 3141 3143 3145 3147 3148 3148 3149 3150 3151 3151 3152 3151 3152 3152 3152 3153 3153 3153 3154 3156 3157 3158 3159 3160 3161 3161 3161 3162 3162 3162 3162 3162 3163 3163 3164 3164 3164 3166 3167 3170
3133 3138 3138 3139 3141 3143 3145 3147 3147 3148 3149 3149 3150 3151 3152 3152 3152 3152 3153 3153 3153 3154 3154 3155 3157 3158 3159 3160 3160 3161 3161 3161 3161 3161 3161 3162 3163 3165 3165 3165 3166 3167 3169
3131 3135 3137 3137 3138 3140 3142 3144 3145 3146 3147 3148 3149 3150 3150 3151 3151 3152 3152 3153 3154 3154 3155 3155 3156 3157 3159 3159 3159 3160 3160 3160 3159 3160 3159 3159 3162 3162 3163 3163 3165 3167 3169
3130 3132 3134 3135 3136 3137 3139 3141 3143 3144 3146 3147 3148 3148 3149 3149 3150 3151 3151 3152 3153 3153 3154 3154 3155 3156 3157 3158 3158 3158 3159 3158 3158 3159 3158 3158 3155 3159 3163 3163 3163 3166 3168
3128 3128 3132 3132 3133 3134 3136 3137 3139 3141 3143 3144 3146 3146 3147 3147 3148 3149 3150 3151 3151 3152 3153 3153 3154 3155 3156 3157 3157 3157 3157 3157 3157 3158 3155 3155 3144 3157 3160 3164 3163 3163 3167
3124 3125 3128 3128 3130 3131 3133 3135 3136 3138 3140 3141 3143 3144 3145 3146 3146 3147 3148 3149 3150 3150 3150 3151 3153 3153 3154 3155 3156 3156 3156 3156 3155 3156 3154 3156 3149 3156 3162 3164 3162 3163 3166
3120 3120 3123 3124 3126 3127 3129 3131 3132 3134 3136 3137 3139 3141 3142 3144 3144 3145 3146 3147 3148 3148 3148 3149 3150 3151 3151 3152 3154 3154 3155 3155 3153 3154 3154 3155 3153 3159 3163 3164 3162 3162 3166
3116 3116 3119 3120 3121 3123 3124 3126 3128 3130 3132 3134 3136 3137 3139 3140 3142 3142 3143 3144 3145 3146 3146 3147 3148 3148 3148 3150 3151 3152 3153 3153 3152 3152 3152 3150 3148 3153 3159 3162 3162 3162 3164
3111 3113 3114 3116 3117 3119 3120 3122 3124 3126 3128 3130 3132 3133 3135 3137 3138 3139 3140 3141 3142 3143 3144 3145 3146 3147 3147 3146 3147 3149 3149 3151 3151 3150 3151 3147 3151 3153 3156 3159 3158 3161 3162
3105 3107 3109 3111 3113 3114 3115 3117 3119 3122 3124 3126 3128 3130 3132 3133 3135 3136 3137 3138 3139 3139 3140 3141 3143 3143 3144 3145 3144 3145 3146 3148 3149 3148 3149 3147 3147 3150 3154 3154 3154 3156 3158
3103 3099 3103 3105 3109 3110 3111 3113 3115 3118 3120 3122 3125 3126 3128 3129 3131 3132 3134 3135 3136 3137 3137 3138 3139 3140 3140 3141 3143 3142 3143 3144 3145 3146 3146 3146 3146 3148 3150 3149 3149 3152 3153
3099 3094 3097 3099 3101 3104 3106 3107 3110 3113 3115 3118 3120 3122 3124 3126 3127 3129 3130 3131 3133 3134 3134 3135 3136 3137 3137 3137 3138 3140 3140 3140 3140 3141 3144 3144 3142 3144 3145 3145 3146 3147 3148
3094 3095 3089 3090 3094 3097 3100 3102 3105 3106 3110 3112 3115 3117 3119 3121 3122 3124 3125 3127 3129 3130 3131 3131 3132 3132 3134 3135 3134 3135 3137 3137 3137 3138 3138 3139 3139 3140 3141 3142 3143 3145 3138
3090 3087 3086 3084 3089 3090 3093 3097 3100 3101 3103 3107 3108 3111 3114 3116 3117 3119 3121 3121 3124 3125 3127 3128 3129 3129 3129 3131 3132 3131 3132 3133 3133 3133 3133 3134 3135 3137 3137 3138 3140 3139 3137
3081 3081 3079 3082 3083 3085 3088 3090 3094 3095 3097 3100 3102 3104 3107 3109 3111 3113 3115 3117 3118 3120 3122 3123 3124 3124 3125 3126 3127 3128 3128 3128 3130 3129 3130 3129 3130 3132 3132 3133 3134 3133 3135
3073 3074 3070 3079 3077 3080 3081 3084 3087 3089 3091 3093 3096 3098 3102 3102 3105 3108 3109 3110 3112 3114 3116 3118 3119 3119 3120 3121 3122 3122 3123 3124 3124 3125 3126 3124 3124 3127 3127 3127 3128 3127 3128
3066 3065 3067 3070 3073 3075 3075 3077 3079 3082 3084 3086 3088 3090 3094 3098 3099 3101 3101 3103 3106 3107 3107 3112 3112 3113 3115 3116 3117 3118 3118 3118 3119 3120 3121 3121 3120 3120 3123 3123 3121 3124 3124
3059 3059 3062 3063 3064 3067 3069 3071 3073 3074 3076 3079 3081 3083 3082 3089 3093 3093 3095 3096 3099 3100 3097 3103 3106 3107 3108 3110 3111 3112 3112 3113 3114 3114 3114 3115 3114 3115 3118 3118 3116 3119 3122
3052 3055 3056 3057 3059 3060 3061 3063 3065 3066 3068 3070 3072 3074 3076 3077 3083 3084 3086 3085 3090 3093 3091 3092 3099 3100 3101 3104 3104 3105 3106 3106 3107 3108 3108 3108 3110 3109 3111 3111 3112 3113 3116
3048 3049 3051 3051 3053 3053 3054 3055 3055 3056 3058 3059 3061 3064 3066 3066 3068 3074 3075 3078 3076 3080 3086 3087 3090 3092 3093 3095 3097 3098 3100 3101 3101 3102 3102 3102 3104 3104 3104 3106 3105 3106 3108
3042 3045 3045 3046 3046 3047 3046 3047 3048 3048 3049 3049 3051 3051 3054 3056 3056 3060 3064 3067 3066 3069 3071 3074 3079 3082 3083 3086 3090 3092 3093 3096 3096 3096 3097 3096 3097 3098 3098 3099 3099 3095 3097
3036 3039 3040 3040 3039 3039 3038 3037 3038 3037 3037 3039 3041 3041 3041 3042 3045 3044 3050 3055 3057 3051 3019 3061 3068 3074 3075 3076 3082 3086 3084 3089 3091 3091 3091 3090 3091 3091 3091 3091 3092 3089 3089
3033 3033 3033 3033 3032 3032 3030 3029 3027 3026 3025 3026 3025 3028 3029 3030 3028 3033 3036 3040 3043 3045 3051 3051 3051 3065 3066 3069 3075 3080 3079 3082 3083 3085 3086 3085 3085 3085 3086 3086 3088 3088 3085
3029 3028 3028 3027 3025 3024 3022 3020 3017 3014 3013 3012 3012 3012 3014 3016 3015 3015 3017 3023 3029 3033 3039 3045 3046 3054 3054 3061 3066 3073 3072 3075 3078 3077 3079 3081 3079 3079 3081 3082 3083 3082 3081
3024 3023 3021 3020 3017 3015 3013 3009 3005 3002 3000 2999 2999 2999 2998 3002 3002 3007 3009 3014 3018 3019 3025 3032 3034 3040 3046 3051 3056 3063 3064 3069 3072 3072 3072 3072 3072 3073 3076 3077 3078 3078 3077